Harlan, IA

11:43 PM CST on February 27, 2017 (GMT -0600)
Harlan Municipal

Weather History for KHNR - November, 2012

Change the Weather History Date:

Friday, November 23, 2012

  Actual Average Record
Temperature  
Mean Temperature 24 °F -  
Max Temperature 35 °F 40 °F 60 °F (2006)
Min Temperature 12 °F 24 °F 1 °F (1970)
Degree Days  
Heating Degree Days 42    
Moisture  
Dew Point 12 °F    
Average Humidity 60    
Maximum Humidity 85    
Minimum Humidity 40    
Precipitation  
Precipitation 0.00 in - - ()
Sea Level Pressure  
Sea Level Pressure 30.42 in    
Wind  
Wind Speed 18 mph (NW)    
Max Wind Speed 29 mph    
Max Gust Speed 38 mph    
Visibility 10 miles    
Events      
Averages and records for this station are not official NWS values.
T = Trace of Precipitation, MM = Missing Value Source: NWS Daily Summary

Daily Weather History Graph

Daily Weather History Graph

Search for Another Location

Airport or City:

Trip Planner

Search our weather history database for the weather conditions in past years. The results will help you decide how hot, cold, wet, or windy it might be!

Date:

Astronomy

Nov. 23, 2012 Rise Set
Actual Time 7:20 AM CST 4:55 PM CST
Civil Twilight 6:49 AM CST 5:25 PM CST
Nautical Twilight 6:15 AM CST 5:59 PM CST
Astronomical Twilight 5:42 AM CST 6:32 PM CST
Moon 2:13 PM CST (11/23) 2:37 AM CST (11/23)
Length of Visible Light 10h 35m
Length of Day
9h 34m
Waxing Gibbous, 80% of the Moon is Illuminated
Nov 23
Waxing Gibbous
Nov 28
Full
Dec 6
Last Quarter
Dec 13
New
Dec 19
First Quarter

Hourly Weather History & Observations

Time (CST) Temp. Windchill Dew Point Humidity Pressure Visibility Wind Dir Wind Speed Gust Speed Precip Events Conditions
12:15 AM 35.6 °F 25.2 °F 26.6 °F 70% 30.24 in 10.0 mi NW 18.4 mph 23.0 mph N/A   Mostly Cloudy
12:35 AM 35.6 °F 24.8 °F 24.8 °F 65% 30.25 in 10.0 mi NW 19.6 mph 26.5 mph N/A   Overcast
12:55 AM 35.6 °F 24.5 °F 21.2 °F 56% 30.25 in 10.0 mi NW 20.7 mph 27.6 mph N/A   Overcast
1:15 AM 33.8 °F 21.6 °F 21.2 °F 60% 30.25 in 10.0 mi NW 23.0 mph 32.2 mph N/A   Overcast
1:35 AM 33.8 °F 22.5 °F 21.2 °F 60% 30.26 in 10.0 mi NW 19.6 mph 26.5 mph N/A   Overcast
1:55 AM 32.0 °F 17.9 °F 21.2 °F 64% 30.29 in 10.0 mi NNW 28.8 mph 38.0 mph N/A   Overcast
2:15 AM 30.2 °F 15.4 °F 19.4 °F 64% 30.31 in 10.0 mi NNW 28.8 mph 36.8 mph N/A   Overcast
2:35 AM 30.2 °F 15.4 °F 15.8 °F 55% 30.32 in 10.0 mi NW 28.8 mph 38.0 mph N/A   Overcast
2:55 AM 28.4 °F 13.8 °F 14.0 °F 55% 30.33 in 10.0 mi NW 25.3 mph 32.2 mph N/A   Mostly Cloudy
3:15 AM 28.4 °F 15.8 °F 14.0 °F 55% 30.34 in 10.0 mi NW 18.4 mph 27.6 mph N/A   Overcast
3:35 AM 26.6 °F 13.1 °F 15.8 °F 64% 30.35 in 10.0 mi NW 19.6 mph - N/A   Mostly Cloudy
3:55 AM 26.6 °F 13.1 °F 15.8 °F 64% 30.35 in 10.0 mi NW 19.6 mph 27.6 mph N/A   Clear
4:15 AM 26.6 °F 12.4 °F 15.8 °F 64% 30.35 in 10.0 mi NW 21.9 mph 29.9 mph N/A   Clear
4:35 AM 26.6 °F 12.4 °F 15.8 °F 64% 30.36 in 10.0 mi NW 21.9 mph 28.8 mph N/A   Mostly Cloudy
4:55 AM 24.8 °F 11.1 °F 15.8 °F 69% 30.36 in 10.0 mi NW 18.4 mph 27.6 mph N/A   Scattered Clouds
5:15 AM 24.8 °F 10.3 °F 15.8 °F 69% 30.37 in 10.0 mi NW 20.7 mph 27.6 mph N/A   Clear
5:35 AM 24.8 °F 11.1 °F 15.8 °F 69% 30.38 in 10.0 mi NW 18.4 mph 26.5 mph N/A   Clear
5:55 AM 23.0 °F 7.2 °F 14.0 °F 68% 30.38 in 10.0 mi NW 23.0 mph 31.1 mph N/A   Clear
6:15 AM 23.0 °F 7.6 °F 12.2 °F 63% 30.39 in 10.0 mi NW 21.9 mph 27.6 mph N/A   Clear
6:35 AM 21.2 °F 5.6 °F 12.2 °F 68% 30.40 in 10.0 mi NW 20.7 mph 27.6 mph N/A   Clear
6:55 AM 21.2 °F 6.4 °F 12.2 °F 68% 30.41 in 10.0 mi NW 18.4 mph 23.0 mph N/A   Clear
7:15 AM 21.2 °F 5.6 °F 12.2 °F 68% 30.42 in 10.0 mi NW 20.7 mph 28.8 mph N/A   Clear
7:35 AM 21.2 °F 6.8 °F 12.2 °F 68% 30.42 in 10.0 mi NW 17.3 mph 25.3 mph N/A   Clear
7:55 AM 21.2 °F 6.0 °F 12.2 °F 68% 30.43 in 10.0 mi NW 19.6 mph 26.5 mph N/A   Clear
8:15 AM 21.2 °F 6.0 °F 12.2 °F 68% 30.44 in 10.0 mi NW 19.6 mph 27.6 mph N/A   Clear
8:35 AM 21.2 °F 5.6 °F 12.2 °F 68% 30.45 in 10.0 mi NW 20.7 mph 28.8 mph N/A   Clear
8:55 AM 23.0 °F 7.2 °F 12.2 °F 63% 30.46 in 10.0 mi NW 23.0 mph 28.8 mph N/A   Clear
9:15 AM 24.8 °F 9.3 °F 12.2 °F 59% 30.47 in 10.0 mi NW 24.2 mph 28.8 mph N/A   Clear
9:35 AM 24.8 °F 8.7 °F 12.2 °F 59% 30.47 in 10.0 mi NW 26.5 mph 32.2 mph N/A   Clear
9:55 AM 24.8 °F 10.0 °F 12.2 °F 59% 30.48 in 10.0 mi NW 21.9 mph 26.5 mph N/A   Clear
10:15 AM 26.6 °F 12.7 °F 12.2 °F 55% 30.49 in 10.0 mi NW 20.7 mph 26.5 mph N/A   Clear
10:35 AM 26.6 °F 11.7 °F 12.2 °F 55% 30.49 in 10.0 mi NNW 24.2 mph 32.2 mph N/A   Clear
10:55 AM 26.6 °F 12.0 °F 10.4 °F 51% 30.49 in 10.0 mi NW 23.0 mph 26.5 mph N/A   Clear
11:15 AM 26.6 °F 12.0 °F 12.2 °F 55% 30.49 in 10.0 mi NW 23.0 mph 27.6 mph N/A   Clear
11:35 AM 28.4 °F 14.4 °F 10.4 °F 47% 30.48 in 10.0 mi NNW 23.0 mph 31.1 mph N/A   Clear
11:55 AM 28.4 °F 14.4 °F 10.4 °F 47% 30.49 in 10.0 mi NNW 23.0 mph 28.8 mph N/A   Clear
12:15 PM 28.4 °F 15.4 °F 10.4 °F 47% 30.48 in 10.0 mi NNW 19.6 mph 27.6 mph N/A   Clear
12:35 PM 28.4 °F 14.1 °F 10.4 °F 47% 30.47 in 10.0 mi NW 24.2 mph 31.1 mph N/A   Clear
12:55 PM 28.4 °F 16.2 °F 10.4 °F 47% 30.48 in 10.0 mi NW 17.3 mph 25.3 mph N/A   Clear
1:15 PM 30.2 °F 18.1 °F 10.4 °F 44% 30.47 in 10.0 mi NW 18.4 mph 23.0 mph N/A   Clear
1:35 PM 30.2 °F 18.1 °F 8.6 °F 40% 30.47 in 10.0 mi NW 18.4 mph 25.3 mph N/A   Clear
1:55 PM 30.2 °F 18.1 °F 8.6 °F 40% 30.46 in 10.0 mi NW 18.4 mph 27.6 mph N/A   Clear
2:15 PM 30.2 °F 18.9 °F 8.6 °F 40% 30.46 in 10.0 mi NW 16.1 mph 21.9 mph N/A   Clear
2:35 PM 30.2 °F 18.9 °F 8.6 °F 40% 30.46 in 10.0 mi NW 16.1 mph 21.9 mph N/A   Clear
2:55 PM 30.2 °F 19.8 °F 8.6 °F 40% 30.46 in 10.0 mi NW 13.8 mph 23.0 mph N/A   Clear
3:15 PM 30.2 °F 20.2 °F 8.6 °F 40% 30.46 in 10.0 mi NW 12.7 mph - N/A   Clear
3:35 PM 30.2 °F 19.3 °F 8.6 °F 40% 30.46 in 10.0 mi NW 15.0 mph 23.0 mph N/A   Clear
3:55 PM 28.4 °F 16.6 °F 8.6 °F 43% 30.46 in 10.0 mi WNW 16.1 mph 19.6 mph N/A   Clear
4:15 PM 28.4 °F 16.2 °F 8.6 °F 43% 30.47 in 10.0 mi NW 17.3 mph - N/A   Clear
4:35 PM 28.4 °F 17.5 °F 8.6 °F 43% 30.47 in 10.0 mi NW 13.8 mph - N/A   Clear
4:55 PM 26.6 °F 18.2 °F 10.4 °F 51% 30.47 in 10.0 mi NW 8.1 mph - N/A   Clear
5:15 PM 24.8 °F 16.1 °F 8.6 °F 50% 30.47 in 10.0 mi NW 8.1 mph - N/A   Clear
5:35 PM 23.0 °F 13.1 °F 8.6 °F 54% 30.47 in 10.0 mi NW 9.2 mph - N/A   Clear
5:55 PM 21.2 °F 12.6 °F 8.6 °F 58% 30.47 in 10.0 mi NW 6.9 mph - N/A   Clear
6:15 PM 19.4 °F 9.5 °F 8.6 °F 63% 30.47 in 10.0 mi NW 8.1 mph - N/A   Clear
6:35 PM 17.6 °F 8.2 °F 8.6 °F 68% 30.47 in 10.0 mi NW 6.9 mph - N/A   Clear
6:55 PM 17.6 °F 8.2 °F 8.6 °F 68% 30.47 in 10.0 mi WNW 6.9 mph - N/A   Clear
7:15 PM 15.8 °F 7.2 °F 8.6 °F 73% 30.47 in 10.0 mi NW 5.8 mph - N/A   Clear
7:35 PM 15.8 °F 6.1 °F 8.6 °F 73% 30.46 in 10.0 mi NW 6.9 mph - N/A   Clear
7:55 PM 15.8 °F 8.6 °F 8.6 °F 73% 30.45 in 10.0 mi WNW 4.6 mph - N/A   Clear
8:15 PM 15.8 °F 7.2 °F 8.6 °F 73% 30.46 in 10.0 mi WNW 5.8 mph - N/A   Clear
8:35 PM 15.8 °F - 8.6 °F 73% 30.46 in 10.0 mi Calm Calm - N/A   Clear
8:55 PM 15.8 °F 5.1 °F 8.6 °F 73% 30.46 in 10.0 mi WNW 8.1 mph - N/A   Clear
9:15 PM 15.8 °F - 8.6 °F 73% 30.45 in 10.0 mi Calm Calm - N/A   Clear
9:35 PM 15.8 °F - 8.6 °F 73% 30.45 in 10.0 mi Calm Calm - N/A   Clear
9:55 PM 15.8 °F - 8.6 °F 73% 30.44 in 10.0 mi Calm Calm - N/A   Clear
10:15 PM 12.2 °F - 8.6 °F 85% 30.43 in 7.0 mi Calm Calm - N/A   Clear
10:35 PM 15.8 °F - 8.6 °F 73% 30.44 in 10.0 mi Calm Calm - N/A   Clear
10:55 PM 15.8 °F - 8.6 °F 73% 30.43 in 10.0 mi Calm Calm - N/A   Clear
11:15 PM 15.8 °F - 8.6 °F 73% 30.42 in 10.0 mi Calm Calm - N/A   Clear
11:35 PM 15.8 °F - 8.6 °F 73% 30.43 in 10.0 mi Calm Calm - N/A   Clear
11:55 PM 12.2 °F - 8.6 °F 85% 30.42 in 10.0 mi Calm Calm - N/A   Clear